Back to catalog

STARLINK-34378

AliveCommunicationsVLEO
NORAD 64299·PAYLOAD·🇺🇸 United States

Launched Jun 8, 2025 from Vandenberg Space Force Base

Loading…

Next Passes (next 24 hours)

TLE

FreshSource: CelesTrak SupGP

Epoch: Sep 14, 2026, 21:03 UTC

1 64299C 25123J   26257.87756944 -.00003199  00000+0 -11132-3 0  2576
2 64299  70.0002  75.8264 0003248 273.2113 238.2342 15.29571321    10

Track STARLINK-34378 in real time with AllMySat

Download on the App Store